Theta_e
318 318 318 318 317 316 316 317 317 316 316 316 316 316 316 315 315 315 315 315 314 314 313 313 313 313 313 313 313 314 315 316 316 316 316 317 318 319 320 321 321 322
316 316 316 316 315 315 315 315 315 315 314 314 314 314 314 314 313 313 313 313 313 312 311 311 311 310 310 311 311 312 313 313 313 313 313 314 316 317 318 318 318 319
314 314 314 314 314 313 314 313 313 313 313 313 313 313 313 312 312 312 311 311 310 309 309 309 309 309 309 309 309 310 310 310 311 310 311 312 313 314 315 315 316 317
312 312 312 312 312 312 312 312 312 312 312 311 311 311 311 310 310 310 309 309 308 308 308 308 308 308 308 308 309 309 309 309 309 309 310 311 311 312 312 313 314 315
311 311 311 311 311 311 311 311 310 310 310 310 310 310 309 309 309 308 308 308 307 308 308 308 308 307 307 308 308 308 308 309 309 309 309 310 310 311 311 312 313 313
311 310 310 310 310 310 310 309 309 309 309 309 309 309 308 308 307 307 307 307 307 307 307 307 307 307 307 307 307 307 308 308 308 308 309 309 310 311 311 311 312 312
310 310 310 309 309 309 309 308 308 308 308 308 308 308 307 307 306 306 306 306 306 306 306 306 307 306 307 307 307 306 307 307 307 308 308 309 309 310 311 311 311 312
309 309 309 309 309 308 308 308 308 308 308 308 307 307 306 306 306 306 306 306 306 306 306 306 306 306 306 306 306 306 306 306 306 307 308 308 309 310 310 310 311 312
309 308 308 308 308 308 308 307 307 307 307 307 307 306 306 305 305 305 305 305 305 305 305 305 304 305 305 305 305 305 305 306 306 306 307 308 309 309 309 310 310 311
308 308 308 308 308 307 307 307 307 306 306 306 306 306 306 305 305 305 305 305 304 304 304 303 303 303 303 304 304 305 305 305 306 306 307 308 308 308 308 308 309 309
307 307 307 307 307 307 307 306 306 306 305 305 305 305 305 305 305 305 304 304 303 303 303 302 302 301 301 302 303 304 305 305 306 306 306 307 307 307 307 307 307 307
307 307 307 307 306 306 306 306 305 305 305 305 305 305 305 304 304 304 303 303 302 302 302 301 301 300 300 300 301 303 304 304 305 305 306 306 306 306 306 306 306 305
306 306 306 306 305 305 305 305 304 304 304 304 304 304 304 303 303 303 303 302 302 301 301 300 300 299 298 298 299 301 303 304 304 304 305 305 305 305 305 305 304 304
305 305 305 305 305 304 304 304 304 304 303 303 303 303 303 303 303 303 302 302 302 301 300 300 299 298 296 296 297 300 302 303 303 303 303 303 304 303 303 303 303 303
304 304 304 304 304 304 304 304 303 303 303 303 302 302 302 302 302 302 302 302 301 301 300 300 298 297 296 296 296 298 301 302 302 302 303 302 302 302 302 302 302 302
304 304 303 303 303 303 303 303 303 302 302 302 302 302 302 302 302 302 302 302 301 301 301 300 297 296 296 296 297 298 300 301 302 302 302 302 301 301 301 301 301 301
303 303 303 302 302 302 302 302 302 302 302 302 302 302 302 302 302 302 302 302 301 301 300 299 297 296 296 297 297 298 299 301 301 301 301 301 301 301 300 300 300 300
302 302 302 302 302 302 302 302 301 301 301 302 302 301 302 302 302 302 302 302 301 301 300 299 297 295 296 296 297 298 299 300 301 300 300 300 300 300 300 300 299 299
302 302 301 301 301 301 301 301 301 301 301 301 301 301 301 302 302 302 301 301 301 301 300 298 296 295 296 296 297 298 299 300 300 300 300 300 300 300 300 299 299 299
301 301 301 301 301 301 301 301 301 301 301 301 301 301 301 301 302 301 301 301 301 301 300 298 295 295 296 296 297 298 299 300 300 300 300 299 299 299 299 299 298 298
301 301 301 301 300 301 301 301 301 301 301 301 301 301 301 301 301 301 300 301 301 301 301 298 295 295 296 296 297 298 299 300 300 299 299 299 299 299 299 298 298 297
300 300 301 301 300 300 301 301 301 301 301 301 301 301 301 301 300 300 300 300 300 300 300 299 296 295 296 296 296 298 299 300 300 299 299 299 299 298 299 298 298 297
300 300 300 300 300 301 301 300 301 301 301 300 300 301 301 300 300 300 300 299 299 299 300 299 296 295 295 296 296 297 299 300 300 299 299 299 299 299 299 298 298 297
299 299 300 300 300 300 300 300 300 300 300 300 300 300 300 300 300 300 300 299 299 298 299 299 297 295 295 295 295 296 299 300 299 299 299 299 299 299 299 298 298 297
299 299 300 300 300 300 300 300 300 300 300 300 300 300 300 300 300 300 300 299 299 298 297 298 298 295 294 295 295 296 297 299 299 298 299 299 298 299 299 298 298 298
299 299 299 299 299 299 299 299 299 299 300 300 299 299 300 300 300 300 300 299 299 299 297 297 297 296 294 294 294 295 296 297 298 298 298 299 298 298 298 298 298 298
Wind_Speed
6 5 5 5 5 6 5 6 5 6 6 6 6 7 7 8 9 10 10 9 9 10 11 11 12 12 13 12 13 12 11 12 12 12 13 14 14 14 14 15 15 15
6 6 5 6 6 6 6 6 7 7 7 7 7 7 7 8 9 9 9 10 10 11 11 12 12 13 13 13 13 12 12 12 13 13 13 14 13 13 14 15 15 15
7 7 7 7 8 8 8 8 8 8 8 8 8 8 8 8 9 9 10 10 11 11 12 12 13 13 14 14 14 13 12 13 13 13 13 13 13 13 14 14 14 15
8 9 9 10 10 10 10 9 9 9 9 9 9 9 9 9 10 10 11 11 11 11 11 12 13 13 14 14 14 13 13 12 13 14 14 13 13 14 14 14 15 16
10 10 11 11 11 11 11 11 10 10 10 10 10 10 11 10 11 11 11 11 11 11 12 13 13 13 13 14 14 13 13 13 13 14 14 14 14 14 14 15 15 16
11 11 11 11 11 11 11 11 10 10 10 10 10 11 11 11 11 11 11 11 11 12 13 13 14 14 13 13 14 14 13 13 13 15 15 14 15 15 15 15 16 16
12 12 11 10 11 11 12 12 11 10 10 10 11 12 11 11 11 11 11 11 12 13 13 14 14 14 14 13 14 14 13 13 14 15 15 15 15 16 16 17 17 17
12 11 11 10 11 12 12 12 12 11 11 11 12 12 12 12 11 11 11 12 13 13 13 14 15 14 14 14 14 15 14 14 14 15 15 16 16 17 17 18 18 18
12 12 11 11 11 12 12 13 12 12 12 12 12 12 12 12 12 11 12 12 13 14 14 15 15 15 15 14 14 15 15 15 15 15 16 17 17 17 18 18 18 18
12 12 11 11 12 13 13 13 13 13 13 13 13 12 12 12 12 12 12 13 13 14 15 16 16 16 16 15 15 15 16 16 16 16 17 17 17 17 18 18 18 19
13 12 12 12 13 14 14 14 14 14 14 14 14 13 13 12 12 12 13 14 14 15 15 16 17 18 18 17 16 15 16 16 16 16 17 17 17 17 18 18 18 19
12 13 13 13 14 14 14 14 14 15 14 14 14 13 13 13 13 13 13 14 15 16 16 17 18 19 20 19 17 16 16 16 16 17 17 16 17 18 18 18 19 19
13 13 13 14 14 14 15 15 15 15 15 14 14 14 14 14 13 13 13 14 15 16 17 18 19 21 23 22 19 16 15 16 16 17 17 17 17 18 18 19 19 19
13 13 14 14 15 15 15 16 16 16 15 15 14 14 14 13 13 13 13 14 14 16 18 19 20 23 25 24 19 15 14 16 16 17 18 18 18 19 19 20 21 20
13 13 14 14 15 15 16 16 16 15 15 15 14 14 13 13 13 13 13 14 14 15 17 20 23 25 25 23 18 14 13 15 16 16 18 18 19 20 20 20 22 22
13 13 14 14 14 15 15 15 15 15 15 14 14 13 13 13 13 13 13 14 14 16 17 19 25 29 26 21 18 15 13 14 16 17 18 19 20 21 21 22 22 22
13 13 14 14 14 14 15 15 15 14 14 13 13 13 12 12 13 13 13 13 14 16 17 19 25 30 27 21 18 18 16 15 16 18 18 19 20 21 22 23 23 24
13 13 14 14 14 14 14 14 14 13 12 12 12 12 12 13 13 13 13 12 13 15 17 19 25 29 27 22 18 19 19 16 16 18 19 19 21 21 22 23 24 25
13 13 13 13 13 14 13 13 13 12 11 11 11 12 13 13 13 13 13 12 12 14 16 20 25 28 27 23 18 18 20 18 17 18 19 20 21 21 22 23 24 26
13 13 13 13 13 13 13 12 11 10 10 10 11 12 12 13 13 13 13 13 13 13 14 19 26 28 27 24 20 18 19 19 18 18 19 20 21 21 22 23 24 26
13 13 13 13 13 12 11 10 9 9 9 10 10 11 11 12 13 13 13 13 13 13 13 18 25 27 27 26 21 18 17 18 17 19 20 20 21 22 21 23 24 25
14 13 13 12 12 11 10 9 8 8 9 9 10 11 11 12 13 13 14 14 14 13 13 17 24 27 27 26 22 18 17 16 16 19 21 20 21 22 21 22 23 24
14 14 13 12 11 10 9 8 8 8 8 9 10 11 11 12 12 13 14 15 15 15 14 16 22 26 27 26 24 20 18 16 15 19 21 21 22 22 22 22 22 24
14 14 13 12 11 10 9 8 8 8 8 9 10 11 11 11 11 12 13 15 17 17 16 15 19 25 27 27 26 23 19 16 16 19 21 22 22 22 22 22 22 25
14 14 13 12 11 10 9 8 8 8 8 9 9 10 10 10 11 12 12 14 15 17 17 16 16 22 27 28 27 26 22 17 17 19 21 22 23 22 22 23 22 24
14 14 13 12 11 10 9 8 9 9 9 9 10 10 10 10 10 11 12 12 13 14 17 18 17 20 25 27 27 27 24 19 16 17 19 21 23 22 22 23 23 22
Wind_Direction
81 85 89 85 83 77 74 72 67 63 58 52 51 47 41 35 26 23 22 17 15 12 6 4 0 357 355 351 349 347 344 341 340 337 333 329 323 319 317 317 317 313
78 83 90 90 85 81 79 77 74 71 65 58 55 53 46 38 32 28 26 24 22 18 13 9 5 3 1 359 358 357 354 351 349 345 342 340 336 331 325 322 320 317
79 83 89 90 89 87 84 81 79 75 69 64 58 54 49 42 37 34 31 30 26 21 17 12 8 7 5 4 3 1 358 356 353 349 346 346 345 342 338 332 327 325
86 88 90 90 89 87 85 83 79 75 71 66 61 56 52 47 42 39 35 31 26 21 17 13 11 10 7 7 6 2 359 358 355 353 351 348 347 346 344 341 336 333
92 92 91 90 89 86 84 82 78 77 73 69 66 61 57 52 47 42 36 29 25 20 18 15 13 12 9 9 8 3 1 360 358 356 355 352 350 349 345 342 339 337
95 93 90 88 86 83 80 78 76 79 77 72 70 65 60 56 50 45 37 31 26 22 19 16 14 12 10 9 9 5 1 359 358 358 357 354 353 351 348 344 340 338
95 92 87 85 83 81 79 76 74 76 77 76 72 67 63 58 53 47 39 33 28 24 21 17 14 12 11 10 9 5 1 358 357 357 356 355 353 351 350 346 342 339
95 91 87 84 84 82 79 77 73 74 77 78 75 69 65 60 55 49 41 36 31 27 23 18 15 12 10 10 9 5 1 358 355 355 355 354 351 350 349 346 343 340
95 93 89 85 84 81 79 77 74 74 75 77 76 72 67 61 57 52 45 40 36 30 26 21 16 13 9 9 9 6 3 359 355 355 354 351 350 349 347 345 343 341
95 93 90 86 82 80 79 77 74 74 74 74 75 72 69 65 59 55 49 44 39 34 30 24 19 14 10 8 7 6 4 0 358 357 355 352 351 349 347 346 345 342
94 91 87 84 82 79 78 76 74 73 73 73 74 73 70 67 61 57 53 48 43 37 31 26 20 15 11 7 4 4 4 2 359 358 356 354 353 351 350 349 347 345
92 88 86 83 81 79 77 76 75 73 72 72 73 72 70 67 64 61 56 52 46 39 33 28 22 17 13 8 3 2 5 4 1 359 357 356 354 353 352 352 350 348
90 88 86 82 81 80 79 77 75 73 72 71 71 72 70 68 66 63 59 54 48 41 35 29 24 19 15 11 6 4 7 6 3 1 359 358 357 355 355 355 353 352
91 88 86 84 83 82 80 78 76 73 72 71 71 70 68 68 66 64 61 55 49 44 37 31 26 20 16 12 7 5 10 9 6 4 2 360 359 358 358 357 355 354
94 91 88 86 85 82 81 79 76 74 72 70 69 68 67 66 65 64 61 56 51 45 38 32 26 21 18 17 13 10 11 11 9 7 5 3 0 359 359 359 357 355
96 94 90 88 86 83 82 80 77 75 72 70 68 67 67 65 63 62 59 55 51 44 39 33 26 22 22 26 31 29 18 12 12 11 8 7 4 1 0 359 358 355
99 96 92 90 86 84 82 80 78 75 73 71 68 65 65 63 61 59 56 55 51 44 40 32 24 22 23 30 41 42 32 19 15 14 12 10 8 6 2 359 356 354
102 99 94 91 87 85 83 80 79 77 74 71 67 64 63 61 59 57 54 53 51 46 41 32 24 21 24 31 41 43 39 32 21 17 15 12 10 8 5 1 357 353
105 101 96 93 88 85 83 81 80 78 74 72 68 65 63 60 58 55 53 52 50 47 43 32 23 20 23 31 39 40 40 38 27 20 19 16 13 11 7 4 360 354
108 103 99 95 90 86 84 82 81 78 75 73 69 66 63 60 57 53 51 50 48 47 44 31 22 21 23 29 35 39 39 37 29 22 22 19 15 14 10 7 4 358
110 106 101 95 90 88 85 84 83 79 76 73 70 67 64 61 58 54 52 50 46 46 46 32 23 23 25 28 33 37 37 35 30 24 23 21 17 16 13 10 7 1
111 107 102 97 94 92 90 87 85 80 77 75 73 71 67 65 62 57 53 51 46 45 47 37 26 25 27 28 31 36 35 32 30 26 24 22 19 17 15 12 10 5
110 106 103 101 99 97 95 91 87 81 78 76 75 73 70 69 67 62 56 53 48 45 45 41 31 27 29 30 32 36 33 28 28 28 25 23 20 17 15 15 13 9
107 106 105 104 103 102 100 95 88 83 79 76 75 75 74 72 69 66 61 56 53 48 46 45 37 31 32 33 34 37 37 29 27 28 25 22 21 18 17 17 14 11
105 106 106 106 106 104 101 96 90 85 82 80 79 78 77 75 71 68 64 59 57 52 48 48 41 35 36 36 35 38 41 34 29 30 28 24 22 19 17 17 16 12
105 105 105 106 108 104 100 97 92 88 84 81 80 80 79 76 72 70 67 62 60 57 51 48 43 36 37 39 38 38 41 40 33 28 25 23 23 22 19 18 18 13